This demonstration page uses our WeatherBlox Daily Observations layout. Learn more.

Hourly Observations for August 17, 2016

Temp ( °F °C ) Dew Point ( °F °C ) Humidity (%) Winds ( mph kmh ) Pressure ( in mb ) Visibility ( mi km ) Precip ( " mm )
12:15 am 00:15 Clear 66 18.8 63 17.2 90 90 Calm 30.03 1017 10 16.09344 0 0
12:35 am 00:35 Clear 66 18.8 63 17 89 89 E 7 11 30.06 1018 10 16.09344 0 0
12:55 am 00:55 Clear 65 18.1 62 16.7 92 92 ESE 6 9 30.03 1017 10 16.09344 0 0
1:15 am 01:15 Clear 64 17.7 62 16.4 92 92 SE 9 15 30.03 1017 7 11.265408 0 0
1:35 am 01:35 Clear 66 18.8 63 17.1 90 90 SSE 5 7 30.03 1017 10 16.09344 0 0
1:55 am 01:55 Clear 66 19 64 17.5 91 91 S 5 7 30.03 1017 10 16.09344 0 0
2:15 am 02:15 Clear 66 18.7 63 17.2 91 91 Calm 30.03 1017 10 16.09344 0 0
2:35 am 02:35 Clear 65 18.1 62 16.8 92 92 Calm 30 1016 10 16.09344 0 0
2:55 am 02:55 Clear 66 18.8 63 17.4 92 92 SSE 3 6 30 1016 10 16.09344 0 0
3:15 am 03:15 Clear 65 18.2 62 16.9 92 92 S 3 6 30 1016 10 16.09344 0 0
3:35 am 03:35 Clear 64 17.9 61 16.1 89 89 Calm 30 1016 10 16.09344 0 0
3:55 am 03:55 Clear 63 17.2 61 16.2 94 94 Calm 30 1016 7 11.265408 0 0
4:15 am 04:15 Clear 62 16.4 60 15.3 93 93 NNE 7 11 30.03 1017 7 11.265408 0 0
4:35 am 04:35 Clear with Mist and Fog 62 16.6 60 15.8 95 95 NNE 6 9 30 1016 4 6.437376 0 0
4:55 am 04:55 Clear with Mist and Fog 62 16.6 60 15.7 94 94 Calm 30 1016 4 6.437376 0 0
5:15 am 05:15 Clear with Mist and Fog 61 16.2 60 15.5 96 96 NNE 3 6 30.03 1017 3 4.828032 0 0
5:35 am 05:35 Clear with Mist and Fog 61 16 60 15.3 96 96 N 3 6 30.03 1017 2.5 4.02336 0 0
5:55 am 05:55 Clear with Mist and Fog 61 16 60 15.4 96 96 NNE 5 7 30.03 1017 2 3.218688 0 0
6:15 am 06:15 Clear with Mist and Fog 62 16.5 61 16 97 97 NE 3 6 30.03 1017 2.5 4.02336 0 0
6:35 am 06:35 Clear with Mist and Fog 62 16.5 60 15.8 96 96 E 6 9 30.03 1017 2.5 4.02336 0 0
6:55 am 06:55 Sunny with Mist and Fog 62 16.6 61 16 96 96 NNW 5 7 30.06 1018 3 4.828032 0 0
7:15 am 07:15 Sunny with Mist and Fog 63 17 61 16.3 96 96 N 6 9 30.03 1017 2 3.218688 0 0
7:35 am 07:35 Sunny with Mist and Fog 63 17.4 62 16.7 96 96 NNE 5 7 30.06 1018 2 3.218688 0 0
7:55 am 07:55 Sunny with Mist and Fog 64 17.9 63 17.2 96 96 NE 6 9 30.03 1017 2.5 4.02336 0 0
8:15 am 08:15 Sunny with Mist and Fog 65 18.5 64 17.7 95 95 NE 9 15 30.03 1017 2.5 4.02336 0 0
8:35 am 08:35 Sunny with Mist and Fog 68 19.8 66 18.8 94 94 Calm 30.06 1018 4 6.437376 0 0
8:55 am 08:55 Sunny 69 20.5 66 18.9 91 91 ENE 9 15 30 1016 7 11.265408 0 0
9:15 am 09:15 Sunny 71 21.7 67 19.5 87 87 E 6 9 30 1016 10 16.09344 0 0
9:35 am 09:35 Sunny 73 22.7 67 19.6 83 83 E 7 11 30 1016 10 16.09344 0 0
9:55 am 09:55 Sunny 76 24.5 67 19.6 74 74 E 10 17 29.97 1015 10 16.09344 0 0
10:15 am 10:15 Sunny 76 24.6 67 19.7 74 74 E 8 13 30 1016 10 16.09344 0 0
10:35 am 10:35 Sunny 78 25.8 67 19.5 68 68 E 12 19 30 1016 10 16.09344 0 0
10:55 am 10:55 Sunny 80 26.5 68 20 68 68 E 10 17 29.97 1015 10 16.09344 0 0
11:15 am 11:15 Sunny 81 27.3 67 19.6 63 63 E 13 20 29.97 1015 10 16.09344 0 0
11:35 am 11:35 Sunny 82 27.6 66 18.9 59 59 E 15 24 29.97 1015 10 16.09344 0 0
11:55 am 11:55 Sunny 83 28.4 65 18.4 55 55 ESE 14 22 29.94 1014 10 16.09344 0 0
12:15 pm 12:15 Sunny 84 28.7 62 16.6 48 48 ESE 15 24 29.94 1014 10 16.09344 0 0
12:35 pm 12:35 Sunny 84 29 64 17.7 51 51 E 13 20 29.94 1014 10 16.09344 0 0
12:55 pm 12:55 Sunny 86 29.9 63 17.4 47 47 ESE 12 19 29.94 1014 10 16.09344 0 0
1:15 pm 13:15 Sunny 86 30.2 60 15.6 41 41 E 15 24 29.91 1013 10 16.09344 0 0
1:35 pm 13:35 Sunny 87 30.7 61 16.1 41 41 E 12 19 29.91 1013 10 16.09344 0 0
1:55 pm 13:55 Sunny 87 30.8 62 16.7 43 43 E 12 19 29.91 1013 10 16.09344 0 0
2:15 pm 14:15 Sunny 89 31.4 62 16.4 40 40 E 13 20 29.88 1012 10 16.09344 0 0
2:35 pm 14:35 Sunny 91 32.5 54 12.4 29 29 ESE 15 24 29.88 1012 10 16.09344 0 0
2:55 pm 14:55 Sunny 90 32.2 58 14.2 34 34 ESE 13 20 29.88 1012 10 16.09344 0 0
3:15 pm 15:15 Sunny 90 32.3 59 15 35 35 ESE 12 19 29.88 1012 10 16.09344 0 0
3:35 pm 15:35 Sunny 91 32.9 56 13.5 31 31 ESE 13 20 29.85 1011 10 16.09344 0 0
3:55 pm 15:55 Sunny 92 33.6 56 13.6 30 30 SE 10 17 29.85 1011 10 16.09344 0 0
4:15 pm 16:15 Sunny 92 33.1 55 12.5 28 28 SSE 14 22 29.85 1011 10 16.09344 0 0
4:35 pm 16:35 Sunny 91 33 56 13.2 30 30 SE 10 17 29.85 1011 10 16.09344 0 0
4:55 pm 16:55 Sunny 91 32.9 55 12.9 30 30 SSE 12 19 29.85 1011 10 16.09344 0 0
5:15 pm 17:15 Sunny 91 32.6 54 12.4 29 29 SSE 12 19 29.85 1011 10 16.09344 0 0
5:35 pm 17:35 Sunny 91 32.5 55 12.9 30 30 SSE 10 17 29.85 1011 10 16.09344 0 0
5:55 pm 17:55 Sunny 89 31.8 57 13.9 34 34 SE 9 15 29.85 1011 10 16.09344 0 0
6:15 pm 18:15 Sunny 88 31.3 61 15.9 39 39 ESE 8 13 29.85 1011 10 16.09344 0 0
6:35 pm 18:35 Sunny 86 30 64 17.6 47 47 ESE 9 15 29.85 1011 10 16.09344 0 0
6:55 pm 18:55 Sunny 83 28.5 67 19.3 57 57 ESE 6 9 29.85 1011 10 16.09344 0 0
7:15 pm 19:15 Sunny 83 28.2 66 18.7 56 56 E 7 11 29.85 1011 10 16.09344 0 0
7:35 pm 19:35 Sunny 82 27.6 66 18.7 58 58 SE 3 6 29.85 1011 10 16.09344 0 0
7:55 pm 19:55 Sunny 80 26.4 66 18.7 63 63 ESE 6 9 29.88 1012 10 16.09344 0 0
8:15 pm 20:15 Sunny 76 24.6 67 19.5 73 73 ESE 6 9 29.88 1012 10 16.09344 0 0
8:35 pm 20:35 Clear 74 23.5 67 19.3 77 77 ESE 7 11 29.88 1012 10 16.09344 0 0
8:55 pm 20:55 Clear 73 23 66 19 78 78 ESE 7 11 29.91 1013 10 16.09344 0 0
9:15 pm 21:15 Clear 74 23.4 65 18.6 75 75 ESE 8 13 29.88 1012 10 16.09344 0 0
9:35 pm 21:35 Clear 73 23 66 18.8 77 77 ESE 7 11 29.94 1014 10 16.09344 0 0
9:55 pm 21:55 Clear 74 23.5 65 18.6 74 74 ESE 7 11 29.91 1013 10 16.09344 0 0
10:15 pm 22:15 Clear 73 23 65 18.6 76 76 ESE 7 11 29.94 1014 10 16.09344 0 0
10:35 pm 22:35 Clear 73 23 66 19 78 78 ESE 9 15 29.94 1014 10 16.09344 0 0
10:55 pm 22:55 Clear 73 23 66 19 78 78 ESE 9 15 29.94 1014 10 16.09344 0 0
11:15 pm 23:15 Clear 73 22.6 66 19 80 80 ESE 8 13 29.94 1014 10 16.09344 0 0
11:35 pm 23:35 Clear 73 22.6 66 18.8 79 79 SE 7 11 29.94 1014 10 16.09344 0 0
11:55 pm 23:55 Clear 72 22.1 65 18.5 80 80 SSE 7 11 29.94 1014 10 16.09344 0 0

Powered by AerisWeather